Muscatine, IA

9:08 PM CST on December 08, 2019 (GMT -0600)
Muscatine Municipal

Weather History for KMUT - October, 2019

Change the Weather History Date:

Sunday, October 27, 2019

  Actual Average Record
Temperature  
Mean Temperature 46 °F -  
Max Temperature 59 °F 61 °F 77 °F (1950)
Min Temperature 32 °F 41 °F 21 °F (1997)
Degree Days  
Heating Degree Days 20    
Moisture  
Dew Point 39 °F    
Average Humidity 82    
Maximum Humidity 100    
Minimum Humidity 51    
Precipitation  
Precipitation 0.00 in - - ()
Sea Level Pressure  
Sea Level Pressure 29.90 in    
Wind  
Wind Speed 6 mph ()    
Max Wind Speed 13 mph    
Max Gust Speed 17 mph    
Visibility 7.2 miles    
Events      
Averages and records for this station are not official NWS values.
T = Trace of Precipitation, MM = Missing Value Source: Averaged Metar Reports

Daily Weather History Graph

Daily Weather History Graph

Search for Another Location

Airport or City:

Astronomy

Oct. 27, 2019 Rise Set
Actual Time 7:29 AM CDT 6:06 PM CDT
Civil Twilight 7:01 AM CDT 6:34 PM CDT
Nautical Twilight 6:29 AM CDT 7:07 PM CDT
Astronomical Twilight 5:56 AM CDT 7:39 PM CDT
Moon 6:37 AM CDT (10/27) 6:16 PM CDT (10/27)
Length of Visible Light 11h 33m
Length of Day
10h 36m
Waning Crescent, 0% of the Moon is Illuminated
Oct 27
Waning Crescent
Oct 27
New
Nov 4
First Quarter
Nov 12
Full
Nov 19
Last Quarter

Hourly Weather History & Observations

Time (CDT) Temp. Windchill Dew Point Humidity Pressure Visibility Wind Dir Wind Speed Gust Speed Precip Events Conditions
12:15 AM 41.0 °F 35.2 °F 37.4 °F 87% 29.72 in 7.0 mi WNW 9.2 mph - N/A   Clear
12:35 AM 41.0 °F 35.2 °F 37.4 °F 87% 29.73 in 7.0 mi WNW 9.2 mph - N/A   Clear
12:55 AM 39.2 °F 32.5 °F 37.4 °F 93% 29.73 in 6.0 mi West 10.4 mph - N/A   Clear
1:15 AM 39.2 °F 32.5 °F 37.4 °F 93% 29.75 in 6.0 mi West 10.4 mph - N/A   Clear
1:35 AM 39.2 °F 33.6 °F 37.4 °F 93% 29.75 in 5.0 mi West 8.1 mph - N/A   Clear
1:55 AM 37.4 °F 31.4 °F 35.6 °F 93% 29.76 in 4.0 mi West 8.1 mph - N/A   Clear
2:15 AM 37.4 °F 31.4 °F 35.6 °F 93% 29.77 in 4.0 mi West 8.1 mph - N/A   Clear
2:35 AM 37.4 °F 32.8 °F 35.6 °F 93% 29.77 in 5.0 mi West 5.8 mph - N/A   Clear
2:55 AM 37.4 °F 32.1 °F 35.6 °F 93% 29.78 in 5.0 mi West 6.9 mph - N/A   Clear
3:15 AM 35.6 °F - 35.6 °F 100% 29.79 in 4.0 mi Calm Calm - N/A   Clear
3:35 AM 37.4 °F - 35.6 °F 93% 29.80 in 5.0 mi Calm Calm - N/A   Clear
3:55 AM 37.4 °F - 35.6 °F 93% 29.80 in 5.0 mi Calm Calm - N/A   Clear
4:15 AM 37.4 °F - 35.6 °F 93% 29.81 in 5.0 mi Calm Calm - N/A   Clear
4:35 AM 37.4 °F 33.8 °F 35.6 °F 93% 29.81 in 6.0 mi SSW 4.6 mph - N/A   Clear
4:55 AM 35.6 °F 31.7 °F 33.8 °F 93% 29.80 in 3.0 mi SSE 4.6 mph - N/A   Clear
5:15 AM 35.6 °F 30.7 °F 33.8 °F 93% 29.82 in 3.0 mi South 5.8 mph - N/A   Clear
5:35 AM 33.8 °F 30.8 °F 33.8 °F 100% 29.83 in 3.0 mi South 3.5 mph - N/A   Clear
5:55 AM 33.8 °F - 33.8 °F 100% 29.84 in 3.0 mi Calm Calm - N/A   Clear
6:15 AM 33.8 °F - 33.8 °F 100% 29.85 in 2.5 mi Calm Calm - N/A   Clear
6:35 AM 33.8 °F - 33.8 °F 100% 29.85 in 1.8 mi Calm Calm - N/A   Mist
6:55 AM 32.0 °F - 32.0 °F 100% 29.86 in 1.2 mi Calm Calm - N/A   Clear
7:15 AM 32.0 °F - 32.0 °F 100% 29.87 in 1.8 mi Calm Calm - N/A   Clear
7:35 AM 32.0 °F - 32.0 °F 100% 29.87 in 1.0 mi Calm Calm - N/A   Mist
7:55 AM 32.0 °F - 32.0 °F 100% 29.88 in 0.8 mi Calm Calm - N/A   Mist
8:15 AM 32.0 °F - 32.0 °F 100% 29.89 in 1.2 mi Calm Calm - N/A   Mist
8:35 AM 33.8 °F - 33.8 °F 100% 29.90 in 1.2 mi Calm Calm - N/A   Scattered Clouds
8:55 AM 35.6 °F - 35.6 °F 100% 29.90 in 1.2 mi Calm Calm - N/A   Mist
9:15 AM 37.4 °F - 37.4 °F 100% 29.90 in 1.5 mi Calm Calm - N/A   Scattered Clouds
9:35 AM 41.0 °F - 41.0 °F 100% 29.91 in 2.0 mi Calm Calm - N/A   Mist
9:55 AM 42.8 °F 41.1 °F 41.0 °F 93% 29.91 in 5.0 mi SSE 3.5 mph - N/A   Clear
10:15 AM 46.4 °F 44.3 °F 42.8 °F 87% 29.90 in 7.0 mi SSE 4.6 mph - N/A   Clear
10:35 AM 48.2 °F - 44.6 °F 87% 29.90 in 10.0 mi South 4.6 mph - N/A   Clear
10:55 AM 50.0 °F - 44.6 °F 82% 29.91 in 10.0 mi South 5.8 mph - N/A   Clear
11:15 AM 51.8 °F - 46.4 °F 82% 29.91 in 10.0 mi South 5.8 mph - N/A   Clear
11:35 AM 53.6 °F - 46.4 °F 77% 29.92 in 10.0 mi WSW 5.8 mph - N/A   Clear
11:55 AM 53.6 °F - 46.4 °F 77% 29.92 in 10.0 mi SSW 8.1 mph - N/A   Clear
12:15 PM 55.4 °F - 46.4 °F 72% 29.92 in 10.0 mi SSW 5.8 mph - N/A   Clear
12:35 PM 57.2 °F - 48.2 °F 72% 29.91 in 10.0 mi SW 8.1 mph - N/A   Clear
1:15 PM 57.2 °F - 46.4 °F 67% 29.90 in 10.0 mi SW 11.5 mph - N/A   Clear
1:35 PM 59.0 °F - 44.6 °F 59% 29.92 in 10.0 mi WSW 11.5 mph 17.3 mph N/A   Clear
1:55 PM 59.0 °F - 44.6 °F 59% 29.92 in 10.0 mi SW 12.7 mph - N/A   Clear
2:15 PM 59.0 °F - 44.6 °F 59% 29.91 in 10.0 mi West 10.4 mph - N/A   Clear
2:35 PM 59.0 °F - 44.6 °F 59% 29.92 in 10.0 mi West 12.7 mph - N/A   Clear
2:55 PM 59.0 °F - 42.8 °F 55% 29.92 in 10.0 mi WSW 12.7 mph - N/A   Clear
3:15 PM 59.0 °F - 41.0 °F 51% 29.92 in 10.0 mi WSW 10.4 mph - N/A   Clear
3:35 PM 59.0 °F - 41.0 °F 51% 29.92 in 10.0 mi WSW 11.5 mph - N/A   Clear
3:55 PM 59.0 °F - 41.0 °F 51% 29.93 in 10.0 mi West 12.7 mph - N/A   Clear
4:15 PM 59.0 °F - 41.0 °F 51% 29.94 in 10.0 mi West 11.5 mph - N/A   Clear
4:35 PM 59.0 °F - 41.0 °F 51% 29.94 in 10.0 mi West 10.4 mph - N/A   Clear
4:55 PM 57.2 °F - 41.0 °F 55% 29.95 in 10.0 mi West 11.5 mph - N/A   Clear
5:15 PM 55.4 °F - 41.0 °F 58% 29.95 in 10.0 mi West 10.4 mph - N/A   Clear
5:55 PM 51.8 °F - 41.0 °F 67% 29.96 in 10.0 mi WNW 6.9 mph - N/A   Clear
6:15 PM 50.0 °F - 41.0 °F 71% 29.97 in 10.0 mi WNW 4.6 mph - N/A   Clear
6:35 PM 50.0 °F - 41.0 °F 71% 29.97 in 10.0 mi West 4.6 mph - N/A   Clear
6:55 PM 48.2 °F - 41.0 °F 76% 29.98 in 10.0 mi WSW 4.6 mph - N/A   Clear
7:15 PM 46.4 °F 44.3 °F 41.0 °F 81% 29.98 in 10.0 mi West 4.6 mph - N/A   Clear
7:35 PM 46.4 °F 42.4 °F 41.0 °F 81% 29.99 in 10.0 mi NW 8.1 mph - N/A   Clear
7:55 PM 46.4 °F 42.9 °F 39.2 °F 76% 30.00 in 10.0 mi NW 6.9 mph - N/A   Clear
8:15 PM 46.4 °F 42.4 °F 39.2 °F 76% 30.00 in 10.0 mi NW 8.1 mph - N/A   Clear
8:35 PM 44.6 °F 40.7 °F 39.2 °F 81% 30.00 in 10.0 mi NW 6.9 mph - N/A   Clear
8:55 PM 44.6 °F 39.2 °F 39.2 °F 81% 30.01 in 10.0 mi NW 10.4 mph - N/A   Clear
9:15 PM 44.6 °F 40.2 °F 39.2 °F 81% 30.02 in 10.0 mi NW 8.1 mph - N/A   Clear
9:55 PM 42.8 °F 37.0 °F 39.2 °F 87% 30.03 in 10.0 mi NW 10.4 mph - N/A   Clear
10:15 PM 42.8 °F 37.0 °F 39.2 °F 87% 30.04 in 10.0 mi NW 10.4 mph - N/A   Clear
10:35 PM 42.8 °F 37.0 °F 37.4 °F 81% 30.05 in 10.0 mi NW 10.4 mph - N/A   Clear
10:55 PM 42.8 °F 38.0 °F 37.4 °F 81% 30.05 in 10.0 mi NW 8.1 mph - N/A   Clear
11:15 PM 42.8 °F 38.0 °F 37.4 °F 81% 30.05 in 10.0 mi NNW 8.1 mph - N/A   Clear
11:35 PM 42.8 °F 39.3 °F 37.4 °F 81% 30.04 in 10.0 mi North 5.8 mph - N/A   Scattered Clouds
11:55 PM 41.0 °F 38.0 °F 37.4 °F 87% 30.05 in 10.0 mi NNW 4.6 mph - N/A   Overcast